Location: ??????????
(44.2167°N, 135.5333°E)
Time: 15:14:32
(UTC+00:00)

Cosmos 1908 Rocket - Pass Details

Date: 15 June 2025
Orbit: 601 x 624 km, 82.5° (Epoch: 16 July)

Event Time Altitude Azimuth Distance (km) Brightness Sun altitude
Rises 14:08:05 0° 356° (N) 2,879 8.5 -21.5°
Reaches altitude 10° 14:10:22 10° 2° (N) 1,974 7.2 -21.6°
Maximum altitude 14:14:36 50° 78° (ENE) 788 4.0 -21.7°
Enters shadow 14:15:15 46° 108° (ESE) 835 4.0 -21.7°
